Wind_Speed
23 22 21 21 23 24 23 24 25 23 24 22 25 27 26 25 21 21 21 22 25 28 28 30 32 34 36 36 39 45 48 48 48 51 51 52 51 49 50 53 56 60 61 68
25 25 25 26 27 28 24 26 29 30 26 22 24 24 25 26 26 25 25 28 30 29 31 34 36 39 43 42 50 49 48 49 52 53 52 50 49 50 53 58 61 66 69 74
24 26 30 31 29 29 31 33 32 35 29 28 27 26 25 26 28 29 30 31 31 33 36 39 43 46 49 50 49 49 50 53 53 54 53 50 50 53 57 61 62 69 67 71
29 32 38 30 30 30 32 32 31 33 28 26 25 24 25 26 28 30 31 32 34 37 40 44 47 50 50 49 49 51 53 54 55 53 50 51 54 57 60 64 66 70 69 70
33 35 34 30 28 26 27 29 27 25 25 24 24 24 26 28 30 30 32 34 37 41 45 48 50 51 51 49 51 53 54 54 52 49 50 55 57 62 64 63 65 69 69 70
34 35 33 22 27 27 27 30 24 22 22 24 26 27 27 27 29 31 34 38 42 45 48 49 50 49 49 50 52 53 53 51 48 51 53 59 62 64 64 63 65 68 69 72
35 35 30 23 26 29 28 19 22 22 25 26 25 25 26 29 32 35 39 42 46 48 48 48 49 49 50 52 54 55 53 50 51 53 58 61 63 63 63 64 66 67 69 71
30 29 25 19 24 22 18 19 19 20 21 23 23 25 29 32 35 39 41 43 44 46 47 48 48 49 52 54 56 53 50 51 54 58 60 61 61 61 63 65 66 69 73 74
28 24 20 16 14 14 13 15 18 19 21 24 26 29 32 35 37 40 43 44 46 47 47 48 50 51 54 53 51 49 51 55 58 60 61 60 61 63 65 68 72 75 76 73
25 21 17 14 13 14 16 18 21 23 26 28 31 33 36 40 42 44 45 47 48 48 49 51 53 54 54 53 52 54 56 59 61 61 62 63 65 68 72 75 76 77 75 71
26 22 22 21 20 21 22 24 26 29 31 34 36 39 42 44 45 46 47 49 50 50 51 53 54 54 54 55 56 58 60 62 62 63 64 66 70 74 76 77 78 76 73 68
27 27 27 26 27 28 29 31 33 36 38 41 44 46 47 47 49 50 51 52 52 53 54 56 56 55 55 56 59 62 64 64 64 65 68 72 75 76 78 78 76 74 69 65
33 32 31 32 33 34 36 38 40 42 44 47 49 50 50 51 52 53 54 55 55 55 57 58 57 55 56 61 65 65 64 64 65 69 72 75 78 80 80 76 71 65 65 64
38 38 37 36 37 39 41 43 45 48 50 51 51 52 53 53 54 55 56 56 57 58 58 56 55 58 64 66 66 65 65 67 69 73 76 79 81 81 80 76 71 65 62 65
43 42 42 42 44 45 47 48 50 53 53 51 53 55 56 55 56 56 56 58 59 57 55 55 59 65 67 66 65 65 67 70 74 77 80 82 81 78 73 73 73 71 67 66
47 47 47 48 49 49 50 52 53 53 52 53 58 58 57 57 57 58 59 58 55 54 57 61 65 69 67 66 66 68 71 74 78 79 79 77 74 72 72 74 74 73 73 71
49 49 49 50 51 51 52 53 53 52 58 59 59 58 59 58 59 60 56 53 55 59 64 68 70 68 66 67 69 71 75 78 77 75 75 74 73 73 74 75 75 72 67 61
50 49 50 49 48 50 51 52 54 56 60 60 59 59 59 60 59 55 54 57 61 66 70 70 68 67 68 70 73 76 77 74 73 74 71 71 74 77 74 70 67 65 63 59
46 46 47 47 47 50 53 56 59 60 56 57 58 60 61 58 54 56 60 64 69 72 68 68 68 70 72 74 75 73 70 71 73 71 72 76 75 73 71 69 65 60 56 52
45 47 49 50 50 51 53 50 52 53 56 59 59 58 55 55 58 62 67 71 70 68 67 68 70 72 74 73 68 67 68 71 75 75 79 78 75 73 69 63 59 56 54 51
44 47 51 51 50 48 47 51 55 57 57 56 56 55 57 60 64 67 68 68 66 67 68 70 73 72 69 65 65 68 71 76 78 81 81 81 75 68 61 59 59 57 55 53
45 46 43 43 46 51 54 56 55 56 57 57 57 60 63 66 68 68 66 66 68 70 71 72 69 66 64 66 68 72 77 79 83 82 84 74 65 59 57 59 57 56 54 52
37 39 45 52 54 55 54 54 55 57 58 61 64 66 67 67 66 66 67 70 71 72 69 65 63 63 64 68 72 77 79 81 82 82 76 65 57 55 56 56 55 52 55 54
47 51 54 54 54 55 56 57 58 61 64 66 65 65 65 66 67 69 70 71 69 65 61 61 61 63 68 73 76 78 80 81 80 75 67 58 54 54 54 52 52 52 50 48
55 55 55 56 57 58 59 61 64 66 65 64 64 65 67 67 67 67 68 66 63 60 60 62 65 70 73 75 77 80 78 80 72 69 60 54 53 52 51 49 49 44 42 40
56 56 57 58 60 62 64 63 63 63 63 65 66 66 67 68 68 66 65 61 59 59 61 66 71 74 75 76 79 77 80 70 67 62 56 53 51 50 47 48 42 39 38 37
58 59 60 60 60 59 60 61 64 66 67 67 67 68 66 65 66 68 62 60 60 63 67 71 74 74 76 78 77 80 69 63 61 57 53 50 47 46 44 44 38 36 36 36
Wind_Direction
243 247 245 248 247 254 261 271 269 271 270 254 254 254 258 264 273 273 276 282 282 282 285 288 289 294 288 282 286 295 303 303 297 302 299 299 302 304 306 306 305 310 308 308
251 252 253 254 254 259 265 268 272 271 257 254 253 254 261 270 273 280 286 283 284 288 293 297 300 300 299 296 302 305 306 304 301 300 303 304 303 305 304 304 301 305 307 308
259 265 265 255 255 263 267 267 268 268 268 262 258 256 257 264 274 277 279 287 294 297 299 302 302 303 305 305 305 304 303 302 302 302 302 302 302 301 303 307 301 300 306 302
259 264 263 271 269 265 265 263 261 263 268 258 255 258 265 271 276 283 288 291 293 296 299 300 301 303 304 301 300 301 300 300 301 300 300 299 299 303 305 305 307 306 303 304
266 266 274 265 269 261 262 262 256 255 259 262 263 265 269 275 278 281 286 290 295 297 299 301 302 300 299 300 300 298 299 299 298 297 297 299 303 304 306 307 300 302 304 305
268 267 270 268 258 259 256 257 256 255 258 262 266 270 275 275 282 288 292 295 297 298 299 298 298 297 297 297 297 298 299 298 297 295 299 303 305 306 305 301 301 301 304 305
263 265 267 267 259 255 251 260 248 250 256 263 267 270 281 287 291 294 297 296 297 298 299 299 299 300 300 300 301 300 299 297 298 302 303 304 304 302 299 300 301 302 304 305
263 265 268 259 253 257 253 249 253 258 260 266 278 286 289 293 295 295 295 297 300 302 302 301 300 299 300 301 301 300 299 300 302 303 303 303 301 299 299 301 303 303 306 310
253 256 254 247 250 248 246 247 252 261 273 281 287 292 293 294 299 303 305 305 305 304 303 301 301 302 303 302 299 298 299 302 304 304 303 300 298 300 302 303 304 307 310 310
247 246 246 241 244 251 255 261 270 278 285 289 292 296 302 305 306 306 306 307 306 305 303 303 304 304 304 302 300 300 302 303 303 303 302 302 302 302 303 305 309 310 308 306
244 245 249 251 259 267 274 277 282 287 292 296 299 302 304 305 305 304 305 306 306 305 304 304 305 304 303 301 301 302 303 303 304 304 303 302 302 304 307 309 309 308 307 305
246 248 255 262 270 276 279 284 288 294 299 302 303 303 304 306 305 306 307 307 305 305 304 305 305 303 302 301 303 304 304 305 305 304 303 303 304 306 308 308 307 307 307 305
251 253 259 266 273 278 283 289 294 298 300 299 300 303 305 304 304 305 306 305 304 304 304 305 303 302 303 305 305 304 305 305 303 302 303 304 306 307 308 307 308 309 307 305
254 261 267 272 276 282 287 292 295 296 296 298 300 301 302 302 303 303 304 303 303 304 304 302 303 305 306 305 305 304 303 302 301 302 303 305 307 308 309 308 308 309 304 302
260 262 266 271 276 282 288 291 291 292 294 296 300 302 301 301 301 301 301 301 302 302 302 304 305 305 305 304 303 302 302 302 303 305 307 308 309 309 308 307 308 307 305 303
259 263 268 273 278 281 283 285 287 290 291 293 298 299 297 298 299 299 300 301 301 302 303 302 302 304 304 302 302 302 304 304 305 307 308 310 310 309 307 306 306 305 304 303
262 267 271 273 275 278 280 283 286 283 288 295 295 295 295 297 298 298 298 299 301 302 300 298 300 303 302 302 303 303 304 305 308 310 311 310 309 309 309 307 306 305 304 303
266 268 269 272 276 278 280 282 282 286 291 291 292 294 296 296 296 296 297 299 299 298 297 300 303 302 302 303 304 306 308 308 310 312 311 312 313 313 311 310 309 307 305 303
263 266 270 275 275 277 279 281 283 286 288 291 292 293 294 294 294 295 296 297 296 297 302 302 302 302 304 305 307 308 308 309 314 315 315 316 316 314 314 312 310 309 307 305
266 269 272 274 279 281 280 281 284 287 288 290 292 293 293 292 290 290 291 294 298 301 302 301 302 303 304 306 308 309 311 313 316 317 317 317 316 316 314 312 311 309 307 304
265 270 274 273 275 279 282 283 284 286 289 291 293 291 288 285 285 288 293 298 300 300 300 301 303 305 306 308 308 311 314 317 318 319 318 317 315 312 311 311 311 308 305 303
263 267 273 277 280 282 283 285 286 288 289 288 286 285 285 284 289 294 298 299 299 300 302 303 304 307 308 309 311 315 318 319 320 319 319 318 315 313 312 313 312 311 310 308
277 274 273 279 283 286 287 286 285 283 283 284 286 287 290 294 296 297 298 299 300 301 303 304 306 307 309 312 315 317 318 320 320 319 320 318 315 315 314 314 315 315 315 313
277 281 285 285 286 286 285 283 280 281 284 287 290 292 293 295 296 297 298 299 301 303 303 306 309 311 313 315 316 317 320 320 320 319 320 317 317 316 315 317 319 320 320 319
280 283 284 284 284 281 279 276 278 282 287 290 292 293 294 295 296 297 299 302 304 306 307 308 310 312 314 314 316 319 319 320 318 319 318 317 316 316 317 320 322 323 324 326
280 280 278 276 276 276 278 282 285 288 289 291 292 293 294 296 298 301 304 304 305 307 308 309 310 311 312 314 317 317 319 317 317 318 317 316 316 316 318 322 322 323 325 327
273 274 276 278 281 284 286 288 289 290 291 292 295 296 297 296 297 302 303 304 306 306 306 307 308 310 312 314 315 316 316 314 316 316 316 315 316 317 319 321 320 321 324 325
Height
5725 5726 5727 5728 5729 5729 5729 5730 5730 5731 5730 5731 5730 5729 5730 5731 5733 5733 5733 5732 5731 5729 5727 5725 5723 5720 5717 5712 5708 5702 5696 5690 5685 5679 5673 5667 5661 5655 5649 5642 5634 5627 5618 5608
5719 5720 5721 5721 5722 5722 5724 5724 5723 5723 5724 5725 5724 5725 5724 5725 5725 5726 5725 5724 5722 5720 5718 5714 5711 5708 5705 5701 5696 5690 5684 5679 5673 5667 5661 5654 5648 5642 5636 5629 5621 5613 5604 5592
5714 5714 5714 5714 5718 5719 5718 5717 5717 5716 5720 5719 5719 5719 5719 5719 5719 5719 5717 5715 5713 5709 5706 5703 5700 5696 5693 5688 5683 5678 5674 5667 5661 5654 5647 5642 5636 5629 5622 5615 5607 5599 5588 5577
5707 5708 5705 5710 5710 5709 5709 5710 5710 5710 5712 5713 5713 5713 5712 5712 5712 5711 5708 5706 5703 5701 5698 5695 5692 5688 5683 5678 5673 5668 5662 5656 5649 5642 5636 5630 5623 5617 5609 5601 5591 5581 5572 5562
5700 5700 5700 5701 5702 5702 5702 5703 5703 5704 5705 5706 5706 5707 5707 5707 5705 5703 5701 5699 5696 5693 5690 5686 5681 5676 5671 5667 5661 5655 5650 5644 5637 5631 5624 5617 5611 5602 5594 5585 5577 5568 5558 5549
5693 5693 5692 5697 5694 5695 5695 5694 5698 5699 5700 5700 5700 5699 5699 5698 5697 5695 5693 5690 5687 5683 5679 5675 5670 5665 5660 5655 5649 5643 5637 5630 5624 5619 5612 5605 5595 5587 5578 5571 5563 5554 5544 5534
5686 5686 5687 5689 5688 5687 5688 5696 5692 5693 5693 5693 5692 5692 5691 5690 5688 5686 5683 5680 5676 5672 5667 5662 5657 5652 5646 5641 5635 5629 5623 5617 5611 5604 5597 5589 5581 5573 5564 5556 5548 5539 5529 5519
5681 5680 5681 5683 5681 5683 5685 5684 5686 5686 5686 5686 5686 5685 5684 5682 5680 5677 5674 5670 5665 5660 5655 5650 5645 5640 5634 5628 5621 5614 5609 5603 5597 5590 5582 5574 5566 5557 5549 5541 5532 5522 5513 5502
5676 5676 5676 5677 5677 5678 5679 5680 5680 5680 5681 5680 5679 5678 5676 5673 5670 5665 5661 5656 5652 5647 5642 5636 5631 5626 5620 5613 5607 5601 5595 5589 5582 5574 5566 5558 5551 5542 5533 5523 5515 5504 5492 5484
5671 5672 5673 5673 5674 5674 5675 5675 5675 5675 5674 5673 5671 5668 5664 5660 5657 5653 5649 5644 5639 5633 5628 5622 5616 5610 5604 5598 5593 5587 5580 5573 5566 5558 5550 5542 5534 5526 5517 5506 5495 5484 5474 5465
5665 5667 5667 5668 5669 5669 5669 5669 5668 5667 5665 5663 5660 5657 5653 5650 5646 5641 5636 5631 5626 5620 5615 5609 5603 5597 5591 5585 5579 5572 5565 5558 5550 5542 5533 5526 5517 5507 5497 5486 5475 5466 5457 5446
5659 5659 5660 5661 5661 5662 5661 5660 5659 5657 5654 5651 5648 5645 5641 5637 5633 5628 5623 5617 5612 5606 5601 5595 5589 5582 5577 5571 5564 5557 5549 5541 5533 5525 5516 5507 5499 5491 5478 5467 5457 5446 5438 5429
5651 5652 5652 5653 5653 5652 5651 5649 5647 5646 5643 5640 5636 5632 5628 5624 5619 5614 5609 5603 5598 5592 5586 5580 5574 5568 5562 5555 5548 5540 5532 5524 5516 5508 5499 5489 5478 5467 5461 5455 5439 5431 5420 5411
5643 5643 5643 5643 5642 5642 5640 5639 5636 5634 5631 5628 5624 5619 5615 5611 5606 5601 5595 5589 5583 5577 5571 5565 5560 5553 5546 5539 5531 5523 5515 5508 5500 5491 5481 5471 5460 5448 5436 5426 5421 5418 5410 5397
5633 5633 5634 5633 5632 5631 5629 5627 5624 5621 5618 5614 5610 5606 5602 5597 5593 5587 5582 5576 5570 5563 5557 5551 5545 5539 5531 5523 5515 5507 5499 5490 5481 5470 5459 5448 5438 5427 5416 5407 5398 5390 5385 5380
5621 5622 5622 5622 5621 5619 5617 5614 5611 5608 5605 5601 5597 5593 5588 5583 5578 5573 5567 5561 5555 5549 5543 5537 5530 5523 5515 5506 5498 5489 5480 5471 5461 5451 5440 5429 5418 5408 5398 5388 5379 5369 5361 5353
5609 5611 5611 5609 5608 5606 5603 5600 5597 5594 5591 5587 5583 5578 5573 5568 5563 5557 5551 5545 5540 5534 5528 5521 5513 5505 5498 5489 5481 5473 5464 5453 5441 5430 5420 5409 5399 5388 5378 5367 5357 5347 5339 5332
5599 5598 5597 5596 5594 5592 5589 5586 5584 5580 5577 5573 5568 5563 5558 5553 5547 5542 5536 5531 5525 5518 5511 5503 5495 5487 5480 5472 5463 5453 5443 5433 5423 5413 5402 5391 5379 5368 5356 5345 5335 5327 5320 5313
5587 5585 5584 5583 5582 5579 5576 5573 5570 5566 5562 5557 5553 5548 5542 5536 5531 5526 5521 5515 5509 5502 5493 5485 5478 5470 5461 5453 5444 5435 5425 5415 5404 5393 5383 5372 5360 5347 5336 5325 5316 5307 5300 5295
5574 5573 5571 5570 5568 5566 5563 5559 5555 5551 5547 5542 5537 5532 5526 5520 5516 5510 5504 5498 5490 5483 5476 5468 5460 5452 5444 5435 5426 5417 5407 5397 5387 5375 5363 5352 5340 5328 5317 5307 5299 5291 5285 5278
5563 5561 5559 5557 5555 5552 5549 5546 5541 5536 5531 5526 5520 5515 5510 5505 5500 5493 5486 5479 5473 5466 5459 5451 5443 5434 5426 5417 5409 5400 5389 5378 5367 5354 5342 5331 5319 5308 5298 5290 5282 5274 5267 5261
5550 5548 5546 5544 5541 5537 5533 5528 5523 5519 5515 5510 5505 5500 5494 5488 5482 5476 5469 5463 5456 5449 5441 5432 5425 5417 5409 5400 5391 5381 5370 5359 5347 5333 5321 5308 5298 5290 5282 5274 5266 5257 5249 5242
5536 5534 5532 5529 5525 5520 5516 5512 5508 5503 5498 5493 5488 5483 5477 5471 5464 5458 5452 5445 5438 5431 5422 5414 5407 5400 5392 5383 5373 5363 5352 5340 5327 5314 5303 5291 5283 5275 5268 5260 5251 5242 5233 5224
5523 5520 5517 5513 5509 5505 5500 5496 5492 5487 5482 5476 5470 5464 5458 5452 5447 5441 5434 5426 5419 5412 5405 5398 5390 5383 5374 5365 5355 5345 5334 5322 5310 5298 5287 5277 5269 5262 5254 5246 5237 5228 5219 5209
5508 5504 5500 5496 5492 5487 5483 5479 5475 5469 5464 5458 5453 5447 5441 5434 5428 5422 5415 5409 5402 5395 5388 5380 5373 5366 5358 5348 5338 5327 5316 5306 5295 5284 5274 5266 5258 5250 5242 5234 5226 5217 5209 5200
5490 5487 5483 5479 5475 5471 5466 5460 5455 5450 5445 5440 5434 5428 5422 5416 5409 5403 5397 5390 5384 5378 5371 5364 5357 5349 5341 5332 5322 5310 5301 5291 5281 5271 5262 5254 5247 5239 5231 5224 5216 5209 5201 5194
5473 5470 5466 5461 5457 5452 5447 5442 5437 5432 5426 5421 5415 5408 5402 5396 5390 5384 5378 5373 5367 5361 5355 5348 5340 5332 5324 5315 5305 5296 5286 5277 5268 5259 5250 5243 5236 5229 5222 5214 5207 5201 5195 5188